Time,TemperatureF,DewpointF,PressureIn,WindDirection,WindDirectionDegrees,WindSpeedMPH,WindSpeedGustMPH,Humidity,HourlyPrecipIn,Conditions,Clouds,dailyrainin,SoftwareType,DateUTC
2013-01-06 15:03:00,47.0,21.0,30.45,NW,307,1.0,5.0,36,0.00,,,0.00,,2013-01-06 21:03:00,
2013-01-06 15:22:00,48.0,22.0,30.45,ENE,60,0.0,2.0,36,0.00,,,0.00,,2013-01-06 21:22:00,
2013-01-06 15:33:00,48.0,22.0,30.45,North,353,1.0,5.0,36,0.00,,,0.00,,2013-01-06 21:33:00,
2013-01-06 15:42:00,48.0,22.0,30.45,North,353,1.0,5.0,36,0.00,,,0.00,,2013-01-06 21:42:00,
2013-01-06 15:52:00,47.0,21.0,30.44,NNE,17,1.0,6.0,36,0.00,,,0.00,,2013-01-06 21:52:00,
2013-01-06 16:02:00,47.0,22.0,30.45,NE,46,1.0,4.0,37,0.00,,,0.00,,2013-01-06 22:02:00,
2013-01-06 16:12:00,47.0,22.0,30.45,NE,46,1.0,4.0,37,0.00,,,0.00,,2013-01-06 22:12:00,
2013-01-06 16:22:00,47.0,21.0,30.45,North,6,1.0,5.0,36,0.00,,,0.00,,2013-01-06 22:22:00,
2013-01-06 16:33:00,47.0,22.0,30.44,NNE,27,0.0,3.0,37,0.00,,,0.00,,2013-01-06 22:33:00,
2013-01-06 16:43:00,47.0,22.0,30.44,NNE,27,0.0,3.0,37,0.00,,,0.00,,2013-01-06 22:43:00,
2013-01-06 16:52:00,46.0,22.0,30.44,ENE,75,0.0,3.0,38,0.00,,,0.00,,2013-01-06 22:52:00,
2013-01-06 17:02:00,46.0,22.0,30.44,ENE,61,0.0,1.0,39,0.00,,,0.00,,2013-01-06 23:02:00,
2013-01-06 17:12:00,46.0,22.0,30.44,ENE,61,0.0,1.0,39,0.00,,,0.00,,2013-01-06 23:12:00,
2013-01-06 17:22:00,45.0,22.0,30.44,ESE,104,0.0,1.0,39,0.00,,,0.00,,2013-01-06 23:22:00,
2013-01-06 17:33:00,44.0,22.0,30.44,ENE,77,0.0,0.0,41,0.00,,,0.00,,2013-01-06 23:33:00,
2013-01-06 17:42:00,44.0,22.0,30.44,ENE,77,0.0,0.0,41,0.00,,,0.00,,2013-01-06 23:42:00,
2013-01-06 17:52:00,43.0,22.0,30.44,ENE,77,0.0,0.0,43,0.00,,,0.00,,2013-01-06 23:52:00,
2013-01-06 18:02:00,42.0,22.0,30.44,ENE,77,0.0,0.0,45,0.00,,,0.00,,2013-01-07 00:02:00,
2013-01-06 18:12:00,42.0,22.0,30.44,ENE,77,0.0,0.0,45,0.00,,,0.00,,2013-01-07 00:12:00,
2013-01-06 18:23:00,41.0,23.0,30.44,ENE,77,0.0,0.0,49,0.00,,,0.00,,2013-01-07 00:23:00,
2013-01-06 18:33:00,39.0,22.0,30.44,ENE,77,0.0,0.0,51,0.00,,,0.00,,2013-01-07 00:33:00,
2013-01-06 18:42:00,39.0,22.0,30.44,ENE,77,0.0,0.0,51,0.00,,,0.00,,2013-01-07 00:42:00,
2013-01-06 18:52:00,38.0,23.0,30.44,ENE,77,0.0,0.0,55,0.00,,,0.00,,2013-01-07 00:52:00,
2013-01-06 19:02:00,37.0,24.0,30.44,ENE,77,0.0,0.0,58,0.00,,,0.00,,2013-01-07 01:02:00,
2013-01-06 19:12:00,37.0,24.0,30.44,ENE,77,0.0,0.0,58,0.00,,,0.00,,2013-01-07 01:12:00,
2013-01-06 19:23:00,37.0,24.0,30.44,ENE,77,0.0,0.0,58,0.00,,,0.00,,2013-01-07 01:23:00,
2013-01-06 19:32:00,35.0,23.0,30.45,ENE,77,0.0,0.0,61,0.00,,,0.00,,2013-01-07 01:32:00,
2013-01-06 19:42:00,35.0,23.0,30.45,ENE,77,0.0,0.0,61,0.00,,,0.00,,2013-01-07 01:42:00,
2013-01-06 19:53:00,34.0,23.0,30.45,ENE,77,0.0,0.0,63,0.00,,,0.00,,2013-01-07 01:53:00,
2013-01-06 20:02:00,33.0,23.0,30.45,ENE,78,0.0,0.0,65,0.00,,,0.00,,2013-01-07 02:02:00,
2013-01-06 20:12:00,33.0,23.0,30.45,ENE,78,0.0,0.0,65,0.00,,,0.00,,2013-01-07 02:12:00,
2013-01-06 20:22:00,33.0,23.0,30.45,ENE,77,0.0,0.0,66,0.00,,,0.00,,2013-01-07 02:22:00,
2013-01-06 20:32:00,33.0,23.0,30.44,ENE,78,0.0,0.0,67,0.00,,,0.00,,2013-01-07 02:32:00,
2013-01-06 20:42:00,33.0,23.0,30.44,ENE,78,0.0,0.0,67,0.00,,,0.00,,2013-01-07 02:42:00,
2013-01-06 20:52:00,32.0,23.0,30.44,ENE,78,0.0,0.0,68,0.00,,,0.00,,2013-01-07 02:52:00,
2013-01-06 21:02:00,30.0,22.0,30.44,ENE,77,0.0,0.0,71,0.00,,,0.00,,2013-01-07 03:02:00,
2013-01-06 21:12:00,30.0,22.0,30.44,ENE,77,0.0,0.0,71,0.00,,,0.00,,2013-01-07 03:12:00,
2013-01-06 21:22:00,30.0,23.0,30.44,ENE,78,0.0,0.0,74,0.00,,,0.00,,2013-01-07 03:22:00,
2013-01-06 21:33:00,31.0,23.0,30.44,ENE,78,0.0,0.0,71,0.00,,,0.00,,2013-01-07 03:33:00,
2013-01-06 21:42:00,31.0,23.0,30.44,ENE,78,0.0,0.0,71,0.00,,,0.00,,2013-01-07 03:42:00,
2013-01-06 21:52:00,30.0,22.0,30.45,ENE,77,0.0,0.0,72,0.00,,,0.00,,2013-01-07 03:52:00,
2013-01-06 22:02:00,30.0,22.0,30.44,ENE,78,0.0,0.0,73,0.00,,,0.00,,2013-01-07 04:02:00,
2013-01-06 22:12:00,30.0,22.0,30.44,ENE,78,0.0,0.0,73,0.00,,,0.00,,2013-01-07 04:12:00,
2013-01-06 22:22:00,31.0,23.0,30.45,ENE,77,0.0,0.0,71,0.00,,,0.00,,2013-01-07 04:22:00,
2013-01-06 22:32:00,29.0,21.0,30.45,ENE,77,0.0,0.0,73,0.00,,,0.00,,2013-01-07 04:32:00,
2013-01-06 22:42:00,29.0,21.0,30.45,ENE,77,0.0,0.0,73,0.00,,,0.00,,2013-01-07 04:42:00,
2013-01-06 22:52:00,29.0,21.0,30.45,ENE,77,0.0,0.0,73,0.00,,,0.00,,2013-01-07 04:52:00,
2013-01-06 23:03:00,29.0,22.0,30.44,ENE,78,0.0,0.0,74,0.00,,,0.00,,2013-01-07 05:03:00,
2013-01-06 23:12:00,29.0,22.0,30.44,ENE,78,0.0,0.0,74,0.00,,,0.00,,2013-01-07 05:12:00,
2013-01-06 23:22:00,28.0,21.0,30.45,ENE,78,0.0,0.0,76,0.00,,,0.00,,2013-01-07 05:22:00,
2013-01-06 23:33:00,26.0,20.0,30.45,ENE,78,0.0,0.0,79,0.00,,,0.00,,2013-01-07 05:33:00,
2013-01-06 23:42:00,26.0,20.0,30.45,ENE,78,0.0,0.0,79,0.00,,,0.00,,2013-01-07 05:42:00,
2013-01-06 23:52:00,26.0,21.0,30.45,ENE,77,0.0,0.0,80,0.00,,,0.00,,2013-01-07 05:52:00,